Guangchuan 02

operational
NORAD ID: 62112 Int'l Des: 2024-221 Owner: HONGQ Country: CN
LEOCIRCULAR

About Guangchuan 02

Description loading...

Live Position

Loading 3D Globe...

Upcoming Passes

Altitude History

Altitude vs Time

uPlot chart will show altitude changes over time

Two-Line Element Set

1 62112U 24221B 25312.85671514 .00007348 00000-0 40003-3 0 9995
2 62112 49.9418 155.9445 0007577 177.2922 182.8071 15.15322726 52769
Epoch: Nov 8, 2025 • Age: 32 hours

Current Status

Altitude 522.3 km
Velocity 7.61 km/s
Sub-Earth Point 44.62°N, 153.49°E
Launch Date Nov 27, 2024
Age 0.9 years
Type other

Technical Details

Classification Payload
Mass 500.00 kg
Dry Mass 500.00 kg
Total Mass 500.00 kg
Length 0.50 m
Diameter 1.80 m
Span 6.00 m
Shape Box + 2 pan
Manufacturer CAST
Bus Type HQ
Phase Status In Orbit
Owner/State HONGQ/CN

Large Constellations

Loading constellations...